Simultaneous Nadir Overpasses (SNOs) Predictions

Prediction of SNOs between GOES-15 and TERRA Satellite Orbit:

Table of predicted SNOs for the next 14.0 days since TLE Epoch: 7/6/2024
Index Date Time (GOES-15) GOES-15 Lat,Lon TERRA Lat,Lon Distance(km) Time Diff (sec)
1 07/06/2024 05:35:44 -0.10, 61.15 -0.30, 62.15 113.84 80
2 07/06/2024 17:58:25 0.06, 61.20 -0.77, 57.29 444.59 80
3 07/08/2024 17:38:17 0.09, 61.20 0.17, 61.49 34.43 80
4 07/11/2024 05:43:21 -0.07, 61.14 0.01, 60.88 29.82 80
5 07/13/2024 05:23:12 -0.09, 61.14 -0.93, 65.09 449.13 80
6 07/13/2024 17:45:52 0.05, 61.20 -0.18, 60.24 109.43 80
7 07/15/2024 17:25:42 0.07, 61.20 0.72, 64.46 369.26 80
8 07/16/2024 05:48:16 -0.03, 61.15 0.30, 59.62 173.83 80
9 07/18/2024 05:28:06 -0.05, 61.16 -0.63, 63.83 303.80 80
10 07/18/2024 17:50:45 0.00, 61.23 -0.46, 58.98 255.39 80
